period_start,C,m1,H,J0,J1,J2,J3,J4,J5,JA,JB,JC,JD,JJ,JK,JN,#
2013-09-18 00:00:44,-0.01,0.12,0.00,24.91,26.94,29.51,5.92,29.17,1016.13,2052.99,3446.00,3331.17,3612.00,350.98,322.62,16.42,0000 0000 0000 0000 000000
2013-09-18 00:01:45,0.01,0.12,0.00,24.93,26.94,29.48,5.83,29.21,1016.13,2053.00,3446.00,3331.17,3612.00,350.29,321.84,16.43,0000 0000 0000 0000 000000
2013-09-18 00:02:45,0.00,0.12,0.00,24.91,26.94,29.50,5.86,29.13,1016.13,2053.00,3446.01,3331.21,3612.00,349.95,321.72,16.43,0000 0000 0000 0000 000000
2013-09-18 00:03:45,0.00,0.12,0.00,24.90,26.94,29.50,5.83,29.33,1016.13,2053.00,3446.01,3331.16,3612.00,349.74,321.37,16.44,0000 0000 0000 0000 000000
2013-09-18 00:04:45,0.01,0.12,0.00,24.88,26.94,29.50,5.92,29.25,1016.13,2053.00,3446.00,3331.13,3612.00,349.58,321.37,16.44,0000 0000 0000 0000 000000
2013-09-18 00:05:46,0.01,0.12,0.00,24.90,26.94,29.47,5.88,29.04,1016.13,2053.00,3446.00,3331.09,3612.00,349.78,321.55,16.45,0000 0000 0000 0000 000000
2013-09-18 00:06:46,0.00,0.12,0.00,24.92,26.94,29.50,5.75,29.08,1016.13,2053.01,3446.01,3331.26,3612.00,349.30,321.14,16.45,0000 0000 0000 0000 000000
2013-09-18 00:07:46,-0.03,0.12,0.00,24.93,26.94,29.53,5.90,29.21,1016.13,2053.00,3446.00,3331.20,3612.00,350.13,321.07,16.46,0000 0000 0000 0000 000000
2013-09-18 00:08:46,0.02,0.12,0.00,24.92,26.94,29.51,5.97,29.54,1016.13,2053.00,3446.00,3331.14,3612.00,349.91,322.04,16.47,0000 0000 0000 0000 000000
2013-09-18 00:09:47,0.01,0.12,0.00,24.93,26.94,29.48,5.88,29.33,1016.13,2053.01,3446.00,3331.13,3612.00,350.04,321.75,16.47,0000 0000 0000 0000 000000
2013-09-18 00:10:47,0.00,0.12,0.00,24.92,26.94,29.48,5.86,29.08,1016.13,2053.00,3446.00,3331.14,3612.00,349.68,321.21,16.48,0000 0000 0000 0000 000000
2013-09-18 00:11:47,-0.01,0.12,0.00,24.95,26.94,29.52,5.95,29.63,1016.13,2053.00,3446.00,3331.29,3612.00,349.77,321.48,16.48,0000 0000 0000 0000 000000
2013-09-18 00:12:47,-0.03,0.12,0.00,24.94,26.94,29.50,5.91,29.29,1016.13,2053.00,3446.00,3331.45,3612.00,349.76,321.04,16.49,0000 0000 0000 0000 000000
2013-09-18 00:13:47,-0.03,0.12,0.00,24.93,26.94,29.52,5.73,29.08,1016.13,2053.00,3446.01,3331.55,3612.00,349.95,321.74,16.50,0000 0000 0000 0000 000000
2013-09-18 00:14:48,-0.01,0.12,0.00,24.93,26.94,29.48,5.95,29.29,1016.13,2053.02,3446.00,3331.44,3612.00,350.32,321.82,16.50,0000 0000 0000 0000 000000
2013-09-18 00:15:48,0.02,0.12,0.00,24.93,26.94,29.53,5.90,29.25,1016.13,2053.01,3446.00,3331.47,3612.00,349.83,321.39,16.51,0000 0000 0000 0000 000000
2013-09-18 00:16:48,-0.01,0.12,0.00,24.92,26.95,29.51,5.92,29.13,1016.12,2053.00,3446.00,3331.37,3612.00,350.14,321.85,16.51,0000 0000 0000 0000 000000
2013-09-18 00:17:49,0.01,0.12,0.00,24.94,26.95,29.53,5.86,29.50,1016.13,2053.00,3446.00,3331.28,3612.00,350.33,322.01,16.52,0000 0000 0000 0000 000000
2013-09-18 00:18:49,0.02,0.12,0.00,24.92,26.95,29.47,5.88,29.33,1016.13,2053.00,3446.00,3331.25,3612.00,349.90,321.88,16.53,0000 0000 0000 0000 000000
2013-09-18 00:19:49,0.00,0.12,0.00,24.91,26.95,29.50,5.98,29.25,1016.13,2053.00,3446.00,3331.26,3612.00,350.01,321.74,16.53,0000 0000 0000 0000 000000
2013-09-18 00:20:49,0.00,0.12,0.00,24.90,26.95,29.48,5.91,29.04,1016.13,2053.00,3446.00,3331.26,3612.00,349.94,321.66,16.54,0000 0000 0000 0000 000000
2013-09-18 00:21:49,0.01,0.12,0.00,24.92,26.95,29.49,5.90,29.46,1016.13,2053.00,3446.00,3331.27,3612.00,350.00,322.19,16.54,0000 0000 0000 0000 000000
2013-09-18 00:22:50,-0.01,0.12,0.00,24.90,26.94,29.53,5.93,29.29,1016.13,2053.00,3446.00,3331.20,3612.00,350.36,321.63,16.55,0000 0000 0000 0000 000000
2013-09-18 00:23:50,0.02,0.12,0.00,24.90,26.94,29.50,5.86,29.38,1016.13,2053.01,3446.00,3331.17,3611.99,349.13,320.78,16.55,0000 0000 0000 0000 000000
2013-09-18 00:24:50,0.00,0.12,0.00,24.91,26.95,29.51,5.94,29.25,1016.13,2053.00,3446.00,3331.17,3611.99,350.05,321.58,16.56,0000 0000 0000 0000 000000
2013-09-18 00:25:50,0.00,0.12,0.00,24.92,26.95,29.50,5.85,29.17,1016.13,2053.00,3446.00,3331.18,3611.99,350.25,321.95,16.57,0000 0000 0000 0000 000000
2013-09-18 00:26:51,0.00,0.12,0.00,24.92,26.94,29.52,5.77,29.08,1016.13,2053.00,3446.00,3331.23,3611.99,349.65,321.41,16.57,0000 0000 0000 0000 000000
2013-09-18 00:27:51,0.00,0.12,0.00,24.93,26.95,29.56,5.82,29.33,1016.12,2053.00,3446.00,3331.18,3611.99,349.30,320.97,16.58,0000 0000 0000 0000 000000
2013-09-18 00:28:51,0.01,0.12,0.00,24.94,26.94,29.57,5.92,29.33,1016.13,2053.01,3446.00,3331.12,3611.99,350.27,321.95,16.58,0000 0000 0000 0000 000000
2013-09-18 00:29:51,0.02,0.12,0.00,24.92,26.95,29.50,5.88,29.17,1016.13,2053.01,3446.00,3331.08,3611.99,349.70,321.32,16.59,0000 0000 0000 0000 000000
2013-09-18 00:30:51,0.00,0.12,0.00,24.91,26.95,29.49,5.92,29.21,1016.13,2053.02,3446.00,3331.08,3611.98,350.00,321.65,16.60,0000 0000 0000 0000 000000
2013-09-18 00:31:52,0.00,0.12,0.00,24.92,26.95,29.50,5.87,29.33,1016.13,2053.00,3445.99,3331.09,3611.99,349.59,321.46,16.60,0000 0000 0000 0000 000000
2013-09-18 00:32:52,-0.01,0.12,0.00,24.92,26.95,29.53,5.88,29.33,1016.13,2053.00,3445.95,3331.12,3611.99,349.07,320.82,16.61,0000 0000 0000 0000 000000
2013-09-18 00:33:52,-0.00,0.12,0.00,24.93,26.95,29.49,5.82,29.54,1016.12,2053.00,3445.97,3331.11,3611.98,348.69,320.39,16.61,0000 0000 0000 0000 000000
2013-09-18 00:34:52,0.00,0.12,0.00,24.93,26.95,29.45,5.86,29.46,1016.11,2053.00,3445.99,3331.11,3611.99,350.22,322.34,16.62,0000 0000 0000 0000 000000
2013-09-18 00:35:52,0.00,0.12,0.00,24.93,26.95,29.47,5.97,29.50,1016.12,2053.01,3445.99,3331.09,3611.99,349.93,321.86,16.62,0000 0000 0000 0000 000000
2013-09-18 00:36:53,0.01,0.12,0.00,24.92,26.95,29.49,5.99,29.50,1016.11,2053.01,3445.99,3331.14,3611.99,350.56,322.60,16.63,0000 0000 0000 0000 000000
2013-09-18 00:37:53,-0.01,0.12,0.00,24.93,26.95,29.51,5.91,29.29,1016.11,2053.02,3445.98,3331.13,3611.98,349.93,321.65,16.64,0000 0000 0000 0000 000000
2013-09-18 00:38:53,0.01,0.12,0.00,24.93,26.94,29.51,6.03,29.83,1016.08,2053.01,3445.97,3331.10,3611.99,351.38,322.97,16.64,0000 0000 0000 0000 000000
2013-09-18 00:39:53,0.00,0.12,0.00,24.93,26.95,29.47,5.93,29.29,1016.09,2053.00,3445.98,3331.09,3611.97,350.33,322.01,16.65,0000 0000 0000 0000 000000
2013-09-18 00:40:54,0.00,0.12,0.00,24.94,26.95,29.50,6.00,29.58,1016.05,2053.00,3445.99,3331.10,3611.95,350.37,322.01,16.65,0000 0000 0000 0000 000000
2013-09-18 00:41:54,0.00,0.12,0.00,24.95,26.95,29.49,5.93,29.71,1016.10,2053.00,3445.95,3331.05,3611.95,349.79,321.54,16.66,0000 0000 0000 0000 000000
2013-09-18 00:42:54,0.01,0.12,0.00,24.94,26.95,29.56,5.83,29.54,1016.07,2053.00,3445.96,3331.05,3611.93,348.99,320.75,16.67,0000 0000 0000 0000 000000
2013-09-18 00:43:54,0.00,0.12,0.00,24.93,26.95,29.53,5.93,29.42,1016.06,2053.00,3445.95,3331.03,3611.94,350.46,322.23,16.67,0000 0000 0000 0000 000000
2013-09-18 00:44:55,0.01,0.12,0.00,24.93,26.95,29.52,5.97,29.42,1016.11,2053.00,3445.96,3331.03,3611.96,351.03,322.65,16.68,0000 0000 0000 0000 000000
2013-09-18 00:45:55,-0.01,0.12,0.00,24.93,26.95,29.49,5.83,29.04,1016.05,2053.00,3445.94,3331.04,3611.94,350.38,322.04,16.68,0000 0000 0000 0000 000000
2013-09-18 00:46:55,0.00,0.12,0.00,24.94,26.95,29.52,5.88,29.29,1016.06,2053.00,3445.91,3331.03,3611.90,349.98,321.66,16.69,0000 0000 0000 0000 000000
2013-09-18 00:47:55,0.01,0.12,0.00,24.93,26.95,29.50,5.92,29.38,1016.10,2053.00,3445.88,3331.03,3611.88,350.87,322.51,16.69,0000 0000 0000 0000 000000
2013-09-18 00:48:55,0.00,0.12,0.00,24.92,26.95,29.49,5.83,29.13,1016.04,2053.00,3445.89,3331.04,3611.86,349.20,320.96,16.70,0000 0000 0000 0000 000000
2013-09-18 00:49:56,0.00,0.12,0.00,24.93,26.95,29.49,6.01,29.21,1016.03,2053.00,3445.87,3331.05,3611.91,350.87,322.60,16.71,0000 0000 0000 0000 000000
2013-09-18 00:50:56,0.00,0.12,0.00,24.91,26.95,29.50,5.88,29.17,1016.00,2053.00,3445.88,3331.04,3611.85,349.76,321.62,16.71,0000 0000 0000 0000 000000
2013-09-18 00:51:56,0.01,0.12,0.00,24.93,26.95,29.49,5.83,29.46,1016.03,2053.00,3445.93,3331.07,3611.91,349.28,321.03,16.72,0000 0000 0000 0000 000000
2013-09-18 00:52:56,-0.02,0.12,0.00,24.93,26.95,29.49,6.09,29.33,1016.02,2053.00,3445.94,3331.07,3611.94,351.58,322.98,16.72,0000 0000 0000 0000 000000
2013-09-18 00:53:56,0.00,0.12,0.00,24.94,26.95,29.52,5.82,29.38,1016.02,2053.00,3445.93,3331.04,3611.97,349.47,321.18,16.73,0000 0000 0000 0000 000000
2013-09-18 00:54:56,0.00,0.12,0.00,24.95,26.95,29.51,5.96,29.13,1016.01,2053.00,3445.85,3331.03,3611.90,350.58,321.69,16.74,0000 0000 0000 0000 000000
2013-09-18 00:55:56,0.03,0.12,0.00,24.95,26.95,29.49,5.92,29.21,1015.98,2053.00,3445.80,3331.02,3611.89,349.19,320.90,16.74,0000 0000 0000 0000 000000
2013-09-18 00:56:57,0.00,0.12,0.00,24.94,26.95,29.47,5.86,29.21,1015.95,2053.00,3445.89,3331.02,3611.90,350.02,321.66,16.75,0000 0000 0000 0000 000000
2013-09-18 00:57:57,0.00,0.12,0.00,24.94,26.95,29.53,5.97,29.50,1015.89,2053.00,3445.82,3331.00,3611.84,349.05,321.16,16.75,0000 0000 0000 0000 000000
2013-09-18 00:58:57,0.02,0.12,0.00,24.94,26.95,29.53,5.91,29.00,1015.93,2053.00,3445.75,3331.00,3611.82,351.03,322.33,16.76,0000 0000 0000 0000 000000
2013-09-18 00:59:57,0.00,0.12,0.00,24.95,26.95,29.50,5.90,29.42,1015.89,2053.00,3445.70,3331.01,3611.72,349.65,321.40,16.77,0000 0000 0000 0000 000000
2013-09-18 01:00:58,0.02,0.12,0.00,24.95,26.95,29.57,5.94,29.38,1015.86,2053.00,3445.47,3331.00,3611.53,349.62,321.37,16.77,0000 0000 0000 0000 000000
2013-09-18 01:01:58,0.04,0.12,0.00,24.95,26.95,29.52,5.95,29.42,1015.83,2053.00,3445.36,3331.02,3611.51,350.67,322.35,16.78,0000 0000 0000 0000 000000
2013-09-18 01:02:58,0.01,0.12,0.00,24.94,26.95,29.50,5.75,29.29,1015.84,2053.00,3445.46,3331.02,3611.62,349.12,320.19,16.78,0000 0000 0000 0000 000000
2013-09-18 01:03:58,-0.02,0.12,0.00,24.95,26.95,29.52,5.93,29.25,1015.84,2053.00,3445.47,3331.01,3611.66,350.87,322.40,16.79,0000 0000 0000 0000 000000
2013-09-18 01:04:58,0.00,0.12,0.00,24.94,26.95,29.51,6.02,29.33,1015.83,2053.00,3445.42,3331.01,3611.59,350.06,321.66,16.79,0000 0000 0000 0000 000000
2013-09-18 01:05:59,0.01,0.12,0.00,24.93,26.95,29.51,5.93,29.38,1015.88,2053.00,3445.28,3331.00,3611.50,349.03,320.74,16.80,0000 0000 0000 0000 000000
2013-09-18 01:06:59,0.02,0.12,0.00,24.94,26.95,29.52,5.91,29.54,1015.80,2053.00,3445.29,3331.00,3611.45,349.99,321.59,16.81,0000 0000 0000 0000 000000
2013-09-18 01:07:59,0.00,0.12,0.00,24.94,26.95,29.56,5.88,29.33,1015.83,2053.00,3445.34,3331.01,3611.61,350.54,322.11,16.81,0000 0000 0000 0000 000000
2013-09-18 01:08:59,-0.02,0.12,0.00,24.94,26.95,29.52,5.83,29.29,1015.81,2053.00,3445.38,3331.01,3611.70,348.64,320.82,16.82,0000 0000 0000 0000 000000
2013-09-18 01:09:59,-0.01,0.12,0.00,24.93,26.95,29.54,5.98,29.29,1015.83,2053.00,3445.47,3331.04,3611.69,350.77,322.34,16.82,0000 0000 0000 0000 000000
2013-09-18 01:10:59,-0.01,0.12,0.00,24.95,26.95,29.46,5.88,29.25,1015.80,2053.00,3445.53,3331.05,3611.50,349.31,320.96,16.83,0000 0000 0000 0000 000000
2013-09-18 01:12:00,0.03,0.12,0.00,24.94,26.95,29.50,6.07,29.38,1015.78,2053.00,3445.45,3331.03,3611.48,350.43,321.88,16.84,0000 0000 0000 0000 000000
2013-09-18 01:13:00,0.00,0.12,0.00,24.95,26.95,29.48,5.80,29.21,1015.71,2053.00,3445.32,3331.01,3611.33,349.28,320.90,16.84,0000 0000 0000 0000 000000
2013-09-18 01:14:00,0.05,0.12,0.00,24.97,26.95,29.50,5.87,29.42,1015.71,2053.00,3445.28,3331.00,3611.34,349.61,321.53,16.85,0000 0000 0000 0000 000000
2013-09-18 01:15:00,0.00,0.12,0.00,24.96,26.95,29.55,6.03,29.33,1015.71,2053.00,3445.25,3331.00,3611.24,351.31,322.76,16.85,0000 0000 0000 0000 000000
2013-09-18 01:16:01,0.01,0.12,0.00,24.96,26.95,29.56,5.88,29.46,1015.71,2053.00,3445.16,3331.00,3611.14,349.10,321.10,16.86,0000 0000 0000 0000 000000
2013-09-18 01:17:01,0.02,0.12,0.00,24.96,26.95,29.54,5.94,29.38,1015.71,2053.00,3445.20,3331.00,3611.19,350.29,322.11,16.86,0000 0000 0000 0000 000000
2013-09-18 01:18:01,-0.01,0.12,0.00,24.97,26.95,29.50,5.93,29.33,1015.67,2053.00,3445.21,3331.01,3611.17,349.76,321.30,16.87,0000 0000 0000 0000 000000
2013-09-18 01:19:01,0.00,0.12,0.00,24.96,26.95,29.57,5.82,29.17,1015.67,2053.00,3445.15,3331.00,3611.09,349.39,320.97,16.88,0000 0000 0000 0000 000000
2013-09-18 01:20:01,0.01,0.12,0.00,24.95,26.95,29.49,5.93,29.17,1015.66,2053.00,3445.11,3331.01,3611.08,350.62,322.11,16.88,0000 0000 0000 0000 000000
2013-09-18 01:21:02,0.00,0.12,0.00,24.93,26.95,29.47,5.88,29.38,1015.70,2053.00,3445.07,3331.00,3611.09,350.18,321.74,16.89,0000 0000 0000 0000 000000
2013-09-18 01:22:02,0.01,0.12,0.00,24.96,26.95,29.52,5.85,29.42,1015.70,2053.00,3445.12,3331.00,3611.11,349.23,320.73,16.89,0000 0000 0000 0000 000000
2013-09-18 01:23:02,-0.01,0.12,0.00,24.95,26.95,29.48,5.98,29.13,1015.71,2053.00,3445.12,3331.01,3611.09,351.08,322.55,16.90,0000 0000 0000 0000 000000
2013-09-18 01:24:02,0.00,0.12,0.00,24.96,26.95,29.50,5.86,29.38,1015.70,2053.00,3445.16,3331.00,3611.10,349.65,321.23,16.91,0000 0000 0000 0000 000000
2013-09-18 01:25:03,0.00,0.12,0.00,24.97,26.95,29.57,5.96,29.42,1015.71,2053.00,3445.32,3331.00,3611.19,349.81,321.30,16.91,0000 0000 0000 0000 000000
2013-09-18 01:26:03,-0.03,0.12,0.00,24.97,26.95,29.51,5.88,29.08,1015.70,2053.00,3445.49,3331.01,3611.28,349.45,321.49,16.92,0000 0000 0000 0000 000000
2013-09-18 01:27:03,-0.03,0.12,0.00,24.97,26.95,29.54,5.84,29.38,1015.69,2053.00,3445.27,3331.01,3611.17,348.66,320.30,16.92,0000 0000 0000 0000 000000
2013-09-18 01:28:03,0.05,0.12,0.00,24.96,26.95,29.57,6.09,29.29,1015.68,2053.00,3445.15,3331.03,3611.11,350.49,321.99,16.93,0000 0000 0000 0000 000000
2013-09-18 01:29:03,0.01,0.12,0.00,24.94,26.95,29.50,5.86,29.13,1015.74,2053.00,3445.09,3331.01,3611.08,349.22,320.87,16.93,0000 0000 0000 0000 000000
2013-09-18 01:30:04,0.01,0.12,0.00,24.97,26.95,29.53,5.95,29.13,1015.79,2053.00,3445.08,3331.00,3611.08,350.52,321.92,16.94,0000 0000 0000 0000 000000
2013-09-18 01:31:04,0.00,0.12,0.00,24.98,26.95,29.53,5.87,29.13,1015.82,2053.00,3445.08,3331.00,3611.09,349.25,321.29,16.95,0000 0000 0000 0000 000000
2013-09-18 01:32:04,0.00,0.12,0.00,24.97,26.95,29.48,5.92,29.21,1015.84,2053.00,3445.04,3331.00,3611.06,349.93,321.50,16.95,0000 0000 0000 0000 000000
2013-09-18 01:33:05,0.01,0.12,0.00,24.97,26.95,29.53,5.89,29.29,1015.86,2053.00,3445.06,3331.01,3611.05,349.70,321.31,16.96,0000 0000 0000 0000 000000
2013-09-18 01:34:05,0.00,0.12,0.00,24.95,26.95,29.50,5.93,29.08,1015.85,2053.00,3445.04,3331.00,3611.06,349.92,321.17,16.96,0000 0000 0000 0000 000000
2013-09-18 01:35:05,-0.00,0.12,0.00,24.96,26.95,29.56,5.92,29.00,1015.85,2053.00,3445.06,3331.00,3611.09,350.24,321.51,16.97,0000 0000 0000 0000 000000
2013-09-18 01:36:05,-0.01,0.12,0.00,24.97,26.95,29.53,5.95,29.33,1015.80,2053.00,3445.07,3331.01,3611.10,349.59,321.18,16.98,0000 0000 0000 0000 000000
2013-09-18 01:37:05,0.00,0.12,0.00,24.97,26.95,29.52,5.89,29.17,1015.76,2053.00,3445.06,3331.00,3611.05,349.97,321.52,16.98,0000 0000 0000 0000 000000
2013-09-18 01:38:06,0.01,0.12,0.00,24.98,26.95,29.52,5.90,29.38,1015.78,2053.00,3445.05,3331.00,3611.02,349.88,321.80,16.99,0000 0000 0000 0000 000000
2013-09-18 01:39:06,0.00,0.12,0.00,24.98,26.95,29.58,6.11,29.46,1015.78,2052.99,3445.03,3331.00,3611.00,350.72,322.09,16.99,0000 0000 0000 0000 000000
2013-09-18 01:40:06,-0.00,0.12,0.00,24.98,26.95,29.53,5.91,29.33,1015.79,2052.98,3445.03,3331.00,3611.01,349.82,321.38,17.00,0000 0000 0000 0000 000000
2013-09-18 01:41:07,-0.01,0.12,0.00,24.98,26.96,29.55,5.89,29.54,1015.78,2052.99,3445.01,3331.00,3611.01,350.49,322.00,17.01,0000 0000 0000 0000 000000
2013-09-18 01:42:07,0.01,0.12,0.00,24.97,26.96,29.53,5.88,29.46,1015.76,2052.99,3445.00,3331.00,3611.00,349.59,321.39,17.01,0000 0000 0000 0000 000000
2013-09-18 01:43:07,0.00,0.12,0.00,24.99,26.96,29.52,6.01,29.46,1015.74,2052.99,3445.00,3331.00,3611.00,350.22,321.86,17.02,0000 0000 0000 0000 000000
2013-09-18 01:44:08,0.00,0.12,0.00,24.99,26.96,29.49,5.84,29.33,1015.76,2052.99,3445.00,3331.00,3611.00,349.50,321.01,17.02,0000 0000 0000 0000 000000
2013-09-18 01:45:08,0.00,0.12,0.00,24.99,26.96,29.55,5.89,29.00,1015.73,2052.99,3445.00,3331.00,3611.00,349.15,320.20,17.03,0000 0000 0000 0000 000000
2013-09-18 01:46:08,0.00,0.12,0.00,24.99,26.97,29.56,5.94,29.33,1015.73,2052.99,3445.00,3331.00,3611.01,350.00,321.52,17.03,0000 0000 0000 0000 000000
2013-09-18 01:47:08,0.00,0.12,0.00,24.98,26.97,29.50,5.93,29.50,1015.74,2052.99,3445.00,3331.00,3611.00,350.53,322.04,17.04,0000 0000 0000 0000 000000
2013-09-18 01:48:09,0.00,0.12,0.00,24.98,26.97,29.46,5.83,29.21,1015.73,2052.99,3445.00,3331.00,3611.01,349.75,321.31,17.05,0000 0000 0000 0000 000000
2013-09-18 01:49:09,0.00,0.12,0.00,24.97,26.97,29.48,5.83,29.13,1015.71,2052.99,3445.00,3331.00,3611.02,350.00,321.54,17.05,0000 0000 0000 0000 000000
2013-09-18 01:50:09,0.00,0.12,0.00,24.97,26.97,29.53,5.81,29.38,1015.74,2052.99,3445.00,3331.00,3611.01,349.34,320.95,17.06,0000 0000 0000 0000 000000
2013-09-18 01:51:09,0.00,0.12,0.00,24.99,26.97,29.53,6.01,29.21,1015.74,2052.99,3445.00,3331.00,3611.01,350.98,322.43,17.06,0000 0000 0000 0000 000000
2013-09-18 01:52:10,0.00,0.12,0.00,24.99,26.97,29.50,5.84,29.17,1015.71,2052.99,3445.00,3331.00,3611.00,349.18,321.24,17.07,0000 0000 0000 0000 000000
2013-09-18 01:53:10,0.00,0.12,0.00,25.00,26.97,29.54,5.72,29.17,1015.75,2052.99,3445.00,3331.00,3611.00,349.52,321.08,17.08,0000 0000 0000 0000 000000
2013-09-18 01:54:10,0.00,0.12,0.00,24.98,26.97,29.54,5.81,29.42,1015.72,2052.99,3445.00,3331.00,3611.00,348.11,319.79,17.08,0000 0000 0000 0000 000000
2013-09-18 01:55:10,0.00,0.12,0.00,24.98,26.97,29.57,5.91,29.42,1015.73,2052.99,3445.00,3331.00,3611.00,349.74,321.29,17.09,0000 0000 0000 0000 000000
2013-09-18 01:56:10,0.00,0.12,0.00,24.98,26.97,29.51,5.89,29.25,1015.72,2052.99,3445.00,3331.01,3611.00,349.93,321.46,17.09,0000 0000 0000 0000 000000
2013-09-18 01:57:11,0.00,0.12,0.00,24.98,26.97,29.52,5.93,29.25,1015.70,2052.99,3445.00,3331.00,3611.00,349.47,321.03,17.10,0000 0000 0000 0000 000000
2013-09-18 01:58:11,0.00,0.12,0.00,25.00,26.97,29.61,6.05,29.17,1015.68,2052.99,3445.00,3331.00,3611.00,350.69,322.13,17.10,0000 0000 0000 0000 000000
2013-09-18 01:59:11,0.00,0.12,0.00,24.99,26.97,29.56,5.93,29.17,1015.67,2052.99,3445.00,3331.00,3611.00,349.47,321.02,17.11,0000 0000 0000 0000 000000
2013-09-18 02:00:11,0.00,0.12,0.00,24.99,26.97,29.55,5.82,29.08,1015.68,2052.99,3445.00,3331.00,3611.00,350.11,321.61,17.12,0000 0000 0000 0000 000000
2013-09-18 02:01:12,0.00,0.12,0.00,24.98,26.97,29.52,5.83,29.21,1015.66,2052.99,3445.00,3331.00,3611.00,349.28,320.85,17.12,0000 0000 0000 0000 000000
2013-09-18 02:02:12,0.00,0.12,0.00,24.98,26.97,29.53,5.82,29.17,1015.65,2052.99,3445.00,3331.00,3611.00,350.23,321.72,17.13,0000 0000 0000 0000 000000
2013-09-18 02:03:12,0.00,0.12,0.00,25.02,26.97,29.54,5.89,29.13,1015.67,2052.99,3445.00,3331.00,3611.00,349.98,321.46,17.13,0000 0000 0000 0000 000000
2013-09-18 02:04:12,0.00,0.12,0.00,25.03,26.97,29.53,5.88,29.04,1015.70,2052.99,3445.01,3331.00,3611.00,349.76,321.25,17.14,0000 0000 0000 0000 000000
2013-09-18 02:05:12,0.00,0.12,0.00,25.01,26.97,29.57,5.99,29.17,1015.68,2052.99,3445.00,3331.00,3611.00,350.27,321.99,17.15,0000 0000 0000 0000 000000
2013-09-18 02:06:13,0.00,0.12,0.00,25.00,26.97,29.56,5.83,29.08,1015.67,2052.99,3445.00,3331.00,3611.00,350.35,321.94,17.15,0000 0000 0000 0000 000000
2013-09-18 02:07:13,0.00,0.12,0.00,24.99,26.97,29.57,5.96,29.13,1015.68,2052.99,3445.00,3331.00,3611.00,350.26,321.58,17.16,0000 0000 0000 0000 000000
2013-09-18 02:08:13,0.00,0.12,0.00,24.98,26.97,29.56,5.90,29.29,1015.66,2052.99,3445.00,3331.00,3611.00,349.36,320.92,17.16,0000 0000 0000 0000 000000
2013-09-18 02:09:13,0.00,0.12,0.00,24.97,26.97,29.53,5.83,29.46,1015.65,2052.99,3445.00,3331.00,3611.00,349.15,320.74,17.17,0000 0000 0000 0000 000000
2013-09-18 02:10:14,0.00,0.12,0.00,25.01,26.97,29.54,6.01,29.29,1015.66,2052.99,3445.01,3331.00,3611.00,350.32,321.78,17.17,0000 0000 0000 0000 000000
2013-09-18 02:11:14,0.00,0.12,0.00,25.01,26.97,29.63,5.95,29.21,1015.69,2052.99,3445.01,3331.00,3611.00,349.88,321.38,17.18,0000 0000 0000 0000 000000
2013-09-18 02:12:14,0.00,0.12,0.00,25.00,26.97,29.57,5.94,29.29,1015.65,2052.99,3445.00,3331.00,3611.00,349.81,321.45,17.19,0000 0000 0000 0000 000000
2013-09-18 02:13:14,0.00,0.12,0.00,25.01,26.97,29.50,5.97,29.21,1015.64,2052.99,3445.00,3331.00,3611.00,350.20,321.65,17.19,0000 0000 0000 0000 000000
2013-09-18 02:14:15,0.00,0.12,0.00,25.02,26.97,29.56,5.96,29.21,1015.64,2052.99,3445.00,3331.00,3611.00,350.57,322.17,17.20,0000 0000 0000 0000 000000
2013-09-18 02:15:15,0.00,0.12,0.00,25.02,26.97,29.56,5.98,29.50,1015.64,2052.99,3444.99,3331.00,3611.00,350.18,321.29,17.20,0000 0000 0000 0000 000000
2013-09-18 02:16:15,0.00,0.12,0.00,25.00,26.97,29.55,5.88,29.29,1015.66,2052.99,3444.99,3331.00,3611.00,350.29,321.76,17.21,0000 0000 0000 0000 000000
2013-09-18 02:17:16,0.00,0.12,0.00,25.02,26.97,29.52,5.81,29.04,1015.65,2052.99,3444.99,3331.00,3611.00,349.35,321.02,17.22,0000 0000 0000 0000 000000
2013-09-18 02:18:16,0.00,0.12,0.00,25.00,26.98,29.61,5.86,29.04,1015.65,2052.99,3444.98,3331.00,3610.97,350.04,321.52,17.22,0000 0000 0000 0000 000000
2013-09-18 02:19:16,0.00,0.12,0.00,25.00,26.98,29.53,5.93,29.21,1015.66,2052.99,3444.98,3331.00,3610.98,350.59,321.51,17.23,0000 0000 0000 0000 000000
2013-09-18 02:20:16,0.00,0.12,0.00,25.01,26.98,29.60,5.91,29.29,1015.64,2052.99,3444.99,3331.00,3610.98,349.38,320.93,17.23,0000 0000 0000 0000 000000
2013-09-18 02:21:17,0.00,0.12,0.00,25.03,26.98,29.53,5.89,29.21,1015.65,2052.99,3444.97,3330.99,3610.97,349.15,321.00,17.24,0000 0000 0000 0000 000000
2013-09-18 02:22:17,0.00,0.12,0.00,25.02,26.99,29.58,5.95,29.63,1015.65,2052.99,3444.98,3330.98,3610.98,349.93,321.57,17.25,0000 0000 0000 0000 000000
2013-09-18 02:23:17,0.00,0.12,0.00,25.04,26.99,29.55,5.82,29.38,1015.65,2052.99,3444.99,3330.99,3610.99,349.75,321.42,17.25,0000 0000 0000 0000 000000
2013-09-18 02:24:18,-0.00,0.12,0.00,25.04,26.99,29.55,5.77,29.17,1015.65,2052.97,3444.98,3330.99,3610.97,349.68,320.85,17.26,0000 0000 0000 0000 000000
2013-09-18 02:25:18,-0.01,0.12,0.00,25.03,26.99,29.59,5.88,29.29,1015.65,2052.98,3444.97,3330.99,3610.98,349.58,320.98,17.26,0000 0000 0000 0000 000000
2013-09-18 02:26:18,0.00,0.12,0.00,25.03,27.00,29.58,5.95,29.46,1015.64,2052.99,3444.97,3330.99,3610.99,349.86,321.32,17.27,0000 0000 0000 0000 000000
2013-09-18 02:27:18,0.01,0.12,0.00,25.03,27.00,29.57,5.97,29.33,1015.64,2052.99,3444.97,3330.98,3610.99,350.35,321.77,17.27,0000 0000 0000 0000 000000
2013-09-18 02:28:19,0.00,0.12,0.00,25.05,27.00,29.60,5.75,29.29,1015.65,2052.99,3444.88,3330.98,3610.97,349.18,320.68,17.28,0000 0000 0000 0000 000000
2013-09-18 02:29:19,0.00,0.12,0.00,25.05,27.00,29.59,5.82,29.08,1015.67,2052.97,3444.79,3330.98,3610.94,349.43,320.91,17.29,0000 0000 0000 0000 000000
2013-09-18 02:30:19,0.01,0.12,0.00,25.05,27.00,29.58,5.97,29.29,1015.66,2052.98,3444.81,3330.97,3610.94,350.14,321.56,17.29,0000 0000 0000 0000 000000
2013-09-18 02:31:20,-0.00,0.12,0.00,25.03,27.00,29.57,5.87,29.46,1015.65,2052.98,3444.82,3330.97,3610.95,349.96,321.22,17.30,0000 0000 0000 0000 000000
2013-09-18 02:32:20,-0.01,0.12,0.00,25.03,27.00,29.56,5.93,29.25,1015.67,2052.99,3444.88,3330.98,3610.95,350.14,321.58,17.30,0000 0000 0000 0000 000000
2013-09-18 02:33:20,0.00,0.12,0.00,25.04,27.00,29.61,5.86,29.13,1015.67,2052.98,3444.91,3330.99,3610.90,349.83,321.29,17.31,0000 0000 0000 0000 000000
2013-09-18 02:34:20,-0.00,0.12,0.00,25.04,27.00,29.54,5.87,29.46,1015.67,2052.98,3444.92,3330.99,3610.91,349.46,320.33,17.32,0000 0000 0000 0000 000000
2013-09-18 02:35:21,-0.01,0.12,0.00,25.03,27.00,29.54,5.88,29.21,1015.65,2052.98,3444.92,3330.99,3610.88,350.19,321.63,17.32,0000 0000 0000 0000 000000
2013-09-18 02:36:21,0.00,0.12,0.00,25.03,27.00,29.57,5.77,29.17,1015.67,2052.97,3444.93,3330.98,3610.88,349.47,321.01,17.33,0000 0000 0000 0000 000000